map of CAY home
CAY - Airport
Location
City:  Cayenne, French Guiana
Name:Félix Eboué Airport
Old (Alt.):Rochambeau Airport
ICAO:SOCA
IATA:CAY

Details
Type:Airport (Aerodrome, Airfield)
Latitude:4°49'11"N (4.819722)
Longitude:52°21'43"W (-52.361943)
Elevation:26 ft (8 m)
Variation:18.39°W (WMM2015 magnetic declination)
-0.02° annual change
Runways:1
Longest:10499 × 148 ft (3200 × 45 m), paved

Time
Time Zone:UTC-3
Local Time:

Weather
METAR:SOCA 191730Z AUTO 06010KT 030V090 9999 FEW048/// SCT068/// ///CB 30/23 Q1009 BECMG SCT030
TAF:SOCA 182300Z 1900/1924 VRB02KT 9999 FEW020 PROB40
TEMPO 1900/1912 SHRA FEW012TCU
FM191400 07012KT 9999 SCT040 PROB30
TEMPO 1915/1918 3000 SHRA FEW015TCU PROB30
TEMPO 1918/1921 TSRA FEW012CB
BECMG 1922/1923 VRB02KT

Related Locations
Nearby:
Farthest:AMQ: 12350 mi / 19875 km
Ambon [Pattimura Airport], ML, ID

Find:

   beyond  
but within

Other Information
Maps:
NOTAMs:
Links:
Sources:

  
flag of French Guiana   

Sectional Chart

Flight Planning
at skyvector.com

Satellite Image

Google Maps Satellite view

 

Copyright © 2004-2017 Karl L. Swartz. All rights reserved.
The Great Circle Mapper name and logo are trademarks of the Great Circle Mapper.
All other trademarks mentioned herein belong to their respective owners.
Please see credits for attibutions and further copyright information.

  Follow gcmap on Facebook Follow gcmap on Twitter Follow gcmap on Google+ GCmap on LinkedIn

hCard Microformat

Geo Microformat